• MPC Preparation (Info)

  • MPEC 2009-K39 : 2009 KC3

    The following Minor Planet Electronic Circular may be linked-to from your own Web pages, but must not otherwise be redistributed electronically.

    A form allowing access to any MPEC is at the bottom of this page.


    Read MPEC 2009-K38 Read MPEC 2009-K40


    M.P.E.C. 2009-K39                                Issued 2009 May 24, 22:54 UT
    
         The Minor Planet Electronic Circulars contain information on unusual
             minor planets and routine data on comets.  They are published
       on behalf of Commission 20 of the International Astronomical Union by the
              Minor Planet Center, Smithsonian Astrophysical Observatory,
                              Cambridge, MA 02138, U.S.A.
    
                 Prepared using the Tamkin Foundation Computer Network
    
                                  MPC@CFA.HARVARD.EDU
              URL http://www.cfa.harvard.edu/iau/mpc.html  ISSN 1523-6714
    
                                       2009 KC3
    
    Observations:
         K09K03C  C2009 05 04.59432 14 39 26.28 -39 38 30.0          18.9 V EK039E12
         K09K03C  C2009 05 04.60527 14 39 25.05 -39 38 36.9          18.9 V EK039E12
         K09K03C  C2009 05 04.61607 14 39 23.90 -39 38 44.0          18.4 V EK039E12
         K09K03C  C2009 05 04.62683 14 39 22.60 -39 38 52.5          18.8 V EK039E12
         K09K03C* C2009 05 23.65086 13 56 05.82 -42 30 41.5          18.4 V EK039E12
         K09K03C  C2009 05 23.65873 13 56 04.59 -42 30 43.8          18.4 V EK039E12
         K09K03C  C2009 05 23.67602 13 56 01.79 -42 30 48.2          18.7 V EK039E12
         K09K03C  C2009 05 23.67678 13 56 01.68 -42 30 48.6          18.5 V EK039E12
         K09K03C  C2009 05 23.67756 13 56 01.56 -42 30 49.0          18.2 V EK039E12
         K09K03C  C2009 05 23.67831 13 56 01.42 -42 30 49.1          18.5 V EK039E12
         K09K03C  C2009 05 23.67907 13 56 01.28 -42 30 49.2          18.5 V EK039E12
         K09K03C QC2009 05 23.68899 13 55 59.72 -42 30 52.1          18.3 R EK039E12
         K09K03C  C2009 05 24.03118 13 55 07.02 -42 32 47.2          17.5 R EK039I77
         K09K03C  C2009 05 24.03224 13 55 06.89 -42 32 47.6          17.2 R EK039I77
         K09K03C  C2009 05 24.03638 13 55 06.13 -42 32 49.3          17.8 R EK039I77
         K09K03C  C2009 05 24.38498 13 54 11.99 -42 34 27.5          18.2 V EK039E16
         K09K03C QC2009 05 24.38868 13 54 11.33 -42 34 29.4          17.8 R EK039E12
         K09K03C  C2009 05 24.39139 13 54 10.93 -42 34 29.5          18.6 V EK039E16
         K09K03C QC2009 05 24.49722 13 53 53.37 -42 35 03.0          18.8 R EK039E12
    
    Observer details:
    E12 Siding Spring Survey.  Observers G. J. Garradd, R. H. McNaught.  Measurers
        E. C. Beshore, A. Boattini, G. J. Garradd, A. R. Gibbs, A. D. Grauer,
        R. E. Hill, R. A. Kowalski, S. M. Larson, R. H. McNaught.  0.5-m Uppsala
        Schmidt + CCD.
    E16 Grove Creek Observatory, Trunkey.  Observers P. Camilleri, G. Sostero,
        E. Guido, E. Prosperi.  0.35-m f/6 reflector + CCD.
    I77 CEAMIG-REA Observatory, Belo Horizonte.  Observers C. Jacques, E. Pimentel.
        Measurer C. Jacques.  0.30-m f/3.0 reflector + CCD.
    
    Orbital elements:
    2009 KC3                                            PHA, Earth MOID = 0.0098 AU
    Epoch 2009 June 18.0 TT = JDT 2455000.5                 MPC
    M 350.32405              (2000.0)            P               Q
    n   0.17306486     Peri.  337.45864     +0.73778502     +0.67240712
    a   3.1890656      Node   339.91563     -0.58989912     +0.59936306
    e   0.6977259      Incl.    9.98013     -0.32816505     +0.43431854
    P   5.70           H   17.9           G   0.15           U   7
    Residuals in seconds of arc
    090504 E12  0.3-  0.7-    090523 E12  0.1+  0.1+    090524 I77  0.1-  0.4-
    090504 E12  0.2-  0.2+    090523 E12  0.1+  0.1-    090524 E16  0.5+  0.1-
    090504 E12  0.7+  0.7+    090523 E12  0.1-  0.0     090524 E12  0.4-  0.1-
    090504 E12  0.3-  0.2-    090523 E12  0.3-  0.1+    090524 E16  0.4+  0.0
    090523 E12  0.4-  0.5+    090523 E12  0.1+  0.2-    090524 E12  0.1+  0.2+
    090523 E12  0.0   0.2+    090524 I77  0.1+  0.1+
    090523 E12  0.1-  0.3+    090524 I77  0.6+  0.1+
    
    Ephemeris:
    2009 KC3                 a,e,i = 3.19, 0.70, 10                  q = 0.9640
    Date    TT    R. A. (2000) Decl.     Delta      r     Elong.  Phase     V
    2009 05 19    14 08.08   -42 01.4    0.552    1.515   150.0    19.5    18.5
    2009 05 29    13 41.95   -42 52.3    0.487    1.422   140.3    27.1    18.3
    2009 06 08    13 16.23   -43 01.2    0.434    1.332   129.1    36.2    18.2
    2009 06 18    12 53.95   -42 42.0    0.389    1.246   117.8    46.2    18.1
    2009 06 28    12 36.55   -42 16.0    0.345    1.165   107.0    56.5    18.0
    2009 07 08    12 23.28   -42 02.4    0.299    1.094    96.9    67.3    17.8
    2009 07 18    12 11.08   -42 07.1    0.247    1.035    87.3    78.9    17.7
    2009 07 28    11 54.09   -42 19.6    0.190    0.992    77.4    91.8    17.5
    2009 08 07    11 18.00   -41 39.4    0.128    0.968    65.4   107.6    17.4
    2009 08 17    09 40.75   -33 28.8    0.0703   0.966    47.0   130.0    17.8
    2009 08 27    06 17.23   +11 04.4    0.0517   0.986    60.2   117.2    16.1
    2009 09 06    03 59.55   +37 10.3    0.0973   1.026    97.7    76.9    15.6
    2009 09 16    02 59.28   +42 31.1    0.157    1.082   115.5    57.0    16.1
    2009 09 26    02 23.60   +43 22.6    0.219    1.152   128.4    43.0    16.6
    2009 10 06    01 58.32   +42 21.6    0.285    1.231   139.4    31.9    17.0
    2009 10 16    01 40.21   +40 18.2    0.359    1.316   148.3    23.5    17.4
    2009 10 26    01 28.57   +37 45.6    0.444    1.406   153.6    18.4    17.8
    2009 11 05    01 22.85   +35 11.5    0.543    1.498   153.8    17.0    18.4
    2009 11 15    01 22.03   +32 53.3    0.657    1.591   149.7    18.3    18.9
    2009 11 25    01 25.16   +30 59.5    0.787    1.685   143.3    20.5    19.5
    2009 12 05    01 31.36   +29 32.8    0.932    1.779   136.1    22.6    20.1
    2009 12 15    01 39.88   +28 31.0    1.092    1.871   128.6    24.3    20.6
    2009 12 25    01 50.19   +27 51.2    1.265    1.963   121.1    25.4    21.0
    2010 01 04    02 01.89   +27 29.4    1.449    2.053   113.8    26.0    21.5
    2010 01 14    02 14.62   +27 21.9    1.643    2.142   106.6    26.1    21.8
    2010 01 24    02 28.20   +27 25.3    1.843    2.230    99.6    25.8    22.1
    
    Timothy B. Spahr             (C) Copyright 2009 MPC           M.P.E.C. 2009-K39
    

    Read MPEC 2009-K38 Read MPEC 2009-K40


    MPEC number:

    Enter an MPEC number in one of the following forms:

    • 1997-B01 (the full form)
    • J97B01 (the packed version of the full form)
    • B01 (the abbreviated form)